Lid_Strength_Index
6 6 7 7 7 7 6 6 6 6 7 7 6 6 6 6 6 6 6 6 6 6 6 5 5 5 6 11 11 8 5 5 3 5 6 6 9 10 12 12 11 11 10 8 8 8 8
6 7 6 6 6 6 7 7 6 6 6 6 6 6 6 6 6 6 6 6 6 6 5 5 5 5 8 13 8 7 7 7 7 5 6 5 6 7 9 10 11 9 9 9 8 8 8
6 6 6 6 6 7 7 6 6 6 6 6 6 6 6 6 6 6 6 5 5 5 5 4 4 6 9 10 6 6 6 7 8 6 6 5 4 8 9 11 9 9 10 9 8 8 9
6 6 6 6 6 6 6 6 6 6 6 6 6 6 6 5 6 5 5 5 5 5 3 3 4 6 10 5 5 6 7 7 7 6 6 5 6 7 8 8 9 10 10 12 9 8 8
6 6 7 7 7 7 7 7 7 7 7 7 6 6 6 5 5 5 5 5 5 4 3 3 6 8 11 4 6 5 5 8 7 5 5 5 5 7 9 11 12 11 14 12 11 8 8
6 6 7 7 7 7 7 7 7 7 6 6 6 6 6 6 5 5 5 5 5 3 4 4 5 10 8 8 6 6 5 6 7 7 6 6 8 10 11 12 16 14 14 12 12 9 9
6 6 6 7 7 7 7 6 6 6 6 6 6 6 6 6 5 5 7 8 11 11 11 12 10 9 9 7 5 7 6 7 5 5 9 7 11 13 12 11 11 12 13 14 12 9 10
6 6 6 6 6 6 6 6 6 6 6 6 6 6 6 6 6 6 8 11 12 11 14 10 10 10 8 7 10 8 6 9 8 10 8 10 12 9 9 10 11 12 14 14 12 10 11
6 6 6 6 6 6 6 6 6 6 6 6 6 6 6 5 6 9 10 11 8 9 13 10 7 9 8 7 10 9 8 9 8 9 10 11 10 8 9 10 11 12 13 12 13 10 10
5 5 6 6 6 6 6 6 6 6 6 6 6 5 5 6 9 10 9 8 8 8 14 13 9 6 6 6 9 6 7 8 8 11 9 10 8 9 10 11 11 14 10 10 11 12 15
6 6 6 7 7 7 7 6 6 6 6 6 5 5 5 6 9 10 9 7 7 7 20 12 7 3 5 8 7 8 5 7 10 10 10 11 11 11 12 11 9 12 9 10 11 13 13
6 6 7 7 7 7 7 6 6 6 6 5 5 4 4 6 7 7 7 7 6 15 20 13 8 9 9 7 7 7 7 7 6 9 9 10 7 9 10 9 9 8 10 11 11 13 18
6 7 7 7 7 7 7 6 6 6 5 4 4 3 5 5 9 6 6 7 15 18 12 13 11 11 11 10 8 8 9 10 12 14 14 12 12 8 8 10 9 9 12 17 19 19 18
6 6 6 6 6 6 6 6 6 5 4 4 3 4 5 5 6 6 7 12 19 15 14 10 12 11 11 10 10 9 10 11 10 12 14 15 15 11 8 10 11 12 12 17 21 20 18
6 7 7 7 6 6 5 6 5 5 4 3 4 7 7 6 5 7 11 17 17 14 12 13 12 12 12 10 11 10 10 11 10 10 13 14 14 10 9 8 8 12 15 11 17 15 19
7 6 7 7 6 6 6 5 4 4 3 3 8 9 8 6 5 8 14 16 14 11 11 12 15 11 13 13 12 12 11 9 10 9 8 10 14 10 10 8 9 11 10 17 16 21 21
6 7 7 6 5 5 4 4 4 3 3 3 9 11 7 6 6 11 17 15 13 10 10 12 13 13 13 14 12 13 11 9 9 9 9 10 11 12 10 12 13 13 13 14 14 15 19
5 6 6 6 4 4 4 3 3 3 3 6 10 15 8 7 13 13 14 12 10 11 10 11 10 11 12 11 12 11 11 10 7 8 11 10 12 15 13 9 8 10 12 13 17 18 17
4 6 5 4 3 3 3 3 3 3 4 8 11 11 8 8 17 15 12 11 10 10 9 9 10 9 8 11 13 11 10 7 7 9 11 9 14 17 15 12 10 12 12 12 13 14 17
4 4 4 3 3 3 3 3 3 3 3 7 12 16 12 9 12 13 14 13 12 7 8 8 9 8 9 10 9 11 11 8 7 8 7 8 11 15 17 14 12 14 12 11 13 17 17
4 4 3 3 3 3 3 3 3 3 2 7 11 14 11 15 12 11 11 11 11 11 8 7 10 10 10 13 11 11 9 9 8 8 8 10 14 13 12 11 12 12 12 12 13 13 16
4 4 2 3 3 3 3 3 3 2 3 8 11 12 10 11 11 11 11 12 12 10 10 10 10 9 10 11 11 12 10 10 11 9 10 9 14 12 13 12 12 13 12 12 11 13 12
3 3 2 3 2 2 2 2 2 2 4 7 7 7 10 11 11 12 12 12 12 10 8 7 8 10 11 9 8 7 7 8 8 10 11 11 13 13 15 12 12 15 12 12 11 10 11
2 2 3 2 2 2 2 2 2 2 4 7 8 7 11 14 12 12 12 11 11 10 10 8 7 9 6 4 5 6 7 8 8 9 8 12 11 12 15 13 18 12 9 9 11 10 9
3 3 2 2 2 2 2 2 2 2 3 6 7 8 11 15 11 11 11 11 10 9 9 8 7 5 4 6 10 12 12 12 11 9 9 9 11 14 15 15 13 12 10 11 12 12 9
3 2 2 2 2 2 2 2 2 2 2 6 6 4 7 12 13 10 11 10 11 11 10 8 5 4 5 9 11 15 16 12 13 12 9 9 9 12 15 17 18 12 9 7 8 13 8
3 2 2 2 2 2 2 2 2 2 2 5 6 5 6 10 9 8 10 10 8 9 11 10 8 8 6 11 13 15 14 11 14 14 14 13 13 15 14 16 13 9 8 7 14 13 8
2 2 2 2 2 2 2 2 2 2 2 4 6 5 6 9 8 6 6 8 8 8 11 9 10 9 10 12 13 13 13 12 12 11 13 13 15 15 14 16 17 8 8 12 10 8 9
2 2 1 2 2 2 2 2 2 1 2 3 6 4 4 6 7 4 4 4 5 5 7 8 9 10 8 10 11 10 13 11 12 14 10 13 11 13 12 12 8 8 9 9 6 8 9